Location: Northam
(31.6525°S, 116.6655°E)
Time: 03:44:38
(UTC+08:00)

STARLINK-1895 - Pass Details

Date: 17 January 2021
Orbit: 422 x 424 km, 53.0° (Epoch: 28 February)

Event Time Altitude Azimuth Distance (km) Brightness Sun altitude
Rises 19:46:07 0° 210° (SSW) 2,399 8.0 -5.5°
Reaches altitude 10° 19:48:41 10° 192° (SSW) 1,511 6.5 -6.0°
Maximum altitude 19:51:16 20° 143° (SE) 1,025 4.9 -6.5°
Drops below altitude 10° 19:53:44 10° 93° (E) 1,440 5.3 -6.9°
Enters shadow 19:54:22 - 86° (E) 1,639 5.5 -7.0°
